STARLINK-32010 (60279 NORAD) Tracking and Keplerian Element Data

This shows tracking and keplerian element data for the satellite.

Feedback or suggestion? Click here.




ElementValue
Catalog60279
NameSTARLINK-32010
Epoch Orbit1301
Epoch Day286.68795682
Epoch Year2024
RAAN275.5539
Inclination53.1601
Eccentricity0.0001473
Argument of Perigee89.3452
Mean Anonmoly270.7717
Mean Motion15.30193989
Decay Rate1.643E-05
L11 60279U 24132B 24286.68795682 .00001643 00000+0 67598-4 0 9991
L22 60279 53.1601 275.5539 0001473 89.3452 270.7717 15.30193989 13018



Live tracking and technical data element details for STARLINK-32010 (NORAD 60279). STARLINK-32010 can be tracked NOW for your location showing map with azimuth and elevation plus other details from your city location.







IsCatalogInMostPopularTable: catalog: 60279, numindb: 11
Update: records affected: 1



GetName: 60279 STARLINK-32010

Hit Count: updated at: Thu, 23 Jan 2025 14:17:18 GMT